Regional Weather Roundup
Issued by NWS

Home | Current Version | Previous Version | Graphics & Text | Print | Product List | Glossary On
Versions: 1 2 3 4 5 6 7 8 9 10 11 12 13 14 15 16 17 18 19 20 21 22 23 24 25 26 27 28 29 30 31 32 33 34 35 36 37 38 39 40 41 42 43 44 45 46 47 48 49 50
000
ASUS43 KOAX 211302
RWRNE

WEATHER ROUNDUP FOR NEBRASKA
NATIONAL WEATHER SERVICE OMAHA NE
800 AM CDT TUE OCT 21 2014

NOTES: SATELLITE DATA IS BEING USED TO AUGMENT CLOUD COVER ABOVE
       12000 FEET.
       "FAIR" INDICATES FEW OR NO CLOUDS BELOW 12,000 FEET WITH NO
       SIGNIFICANT WEATHER AND/OR OBSTRUCTIONS TO VISIBILITY.

  * THESE STATIONS DO NOT REPORT WEATHER SUCH AS RAIN...SNOW OR FOG.

NEZ001>004-019>022-054>056-211400-
NEBRASKA PANHANDLE

CITY           SKY/WX    TMP DP  RH WIND       PRES   REMARKS
SCOTTSBLUFF    CLEAR     42  39  89 E7        29.96S
ALLIANCE       CLEAR     43  40  89 S6        29.96F
CHADRON        CLEAR     46  40  79 S6        29.90S
KIMBALL        CLEAR     40  38  92 SW8       29.99S WCI  34
SIDNEY         CLEAR     44  42  93 S10       29.99F
$$

NEZ057>060-069>072-079>082-211400-
SOUTHWEST NEBRASKA

CITY           SKY/WX    TMP DP  RH WIND       PRES   REMARKS
NORTH PLATTE   CLEAR     47  39  74 S3        30.04S
IMPERIAL       CLEAR     53  48  83 SE9       30.03S
LEXINGTON      CLEAR     39  37  92 E3        30.06S
MCCOOK         CLEAR     41  37  86 E3        30.06S
OGALLALA       CLEAR     39  37  91 CALM      30.02S
$$

NEZ005>010-023>029-035>040-094-211400-
NORTH CENTRAL NEBRASKA

CITY           SKY/WX    TMP DP  RH WIND       PRES   REMARKS
VALENTINE      CLEAR     49  39  68 S12       29.96S
AINSWORTH      CLEAR     50  39  65 S10       29.99R
BROKEN BOW     CLEAR     37  35  92 CALM      30.05R
O`NEILL        CLEAR     46  42  86 SE7       30.03S
ORD            CLEAR     35  33  92 CALM      30.05R
THEDFORD       CLEAR     51  40  67 S10       30.02S
$$

NEZ041-046>049-061>064-073>077-083>087-211400-
SOUTH CENTRAL NEBRASKA

CITY           SKY/WX    TMP DP  RH WIND       PRES   REMARKS
GRAND ISLAND   CLEAR     42  38  85 S3        30.08S
AURORA         CLEAR     40  37  87 CALM      30.08S
HASTINGS       CLEAR     47  39  74 CALM      30.07S
HEBRON         CLEAR     36  34  90 CALM      30.10S
HOLDREGE       CLEAR     46  40  80 CALM      30.07S
KEARNEY *      CLEAR     45  37  76 S6        30.07S
YORK           CLEAR     45  37  76 S6        30.10S
$$

NEZ011>018-030>034-042>045-211400-
NORTHEAST NEBRASKA

CITY           SKY/WX    TMP DP  RH WIND       PRES   REMARKS
NORFOLK        CLEAR     39  35  86 E3        30.07S
ALBION         CLEAR     37  34  88 CALM      30.07S
BLAIR          CLEAR     45  39  81 E3        30.10S
COLUMBUS *     CLEAR     36  30  80 CALM      30.10S
FREMONT        CLEAR     40  39  96 CALM      30.11R
TEKAMAH        CLEAR     37  34  89 CALM      30.11S
WAYNE          CLEAR     34  32  93 CALM      30.09S
$$

NEZ050>053-065>068-078-088>093-211400-
SOUTHEAST NEBRASKA

CITY           SKY/WX    TMP DP  RH WIND       PRES   REMARKS
LINCOLN        CLEAR     38  35  89 CALM      30.12S
OMAHA EPPLEY   CLEAR     39  36  89 NW3       30.12S
BEATRICE       FOG       39  35  87 CALM      30.11S VSB 1
FALLS CITY     CLEAR     35  33  92 E3        30.11S
NEBRASKA CITY  CLEAR     44  37  76 CALM      30.11S
PLATTSMOUTH    CLEAR     44  40  87 E3        30.11S
$$

NEZ044-045-051>053-067-211400-
OMAHA AREA

CITY           SKY/WX    TMP DP  RH WIND       PRES   REMARKS
OMAHA EPPLEY   CLEAR     39  36  89 NW3       30.12S
BLAIR          CLEAR     45  39  81 E3        30.10S
FREMONT        CLEAR     40  39  96 CALM      30.11R
MILLARD        CLEAR     40  39  96 CALM      30.12R FOG
OFFUTT AFB     CLEAR     38  38 100 CALM      30.11R
PLATTSMOUTH    CLEAR     44  40  87 E3        30.11S
WAHOO          FAIR      37  34  87 E3        30.10S
$$


USA.gov is the U.S. government's official web portal to all federal, state and local government web resources and services.